User: anonymous   Login
Location: Caltech
(34.1382°N, 118.1253°W)
Time: 00:22:13
(UTC-07:00)
Language:

Sapphire - Orbit

View from above orbital plane
View from above orbital plane
View from above satellite
View from above satellite

Ground track
Ground track

The orbit data is extracted from the following two-line orbital elements,

1 26932U 01043D   17149.96538699 -.00000040 +00000-0 +16520-4 0  9990
2 26932 067.0544 140.5201 0009205 276.6479 083.3574 14.30249674817691
Epoch (UTC): 29 May 2017 23:10:09
Eccentricity: 0.0009205
inclination: 67.0544°
perigee height: 784 km
apogee height: 797 km
right ascension of ascending node: 140.5201°
argument of perigee: 276.6479°
revolutions per day: 14.30249674
mean anomaly at epoch: 83.3574°
orbit number at epoch: 81769

The dashed part of the orbit path shows where the satellite is in the earth's shadow,  

DLR